Location: ?ozice
(53.1260°N, 14.7909°E)
Time: 00:07:57
(UTC+00:00)

Daily predictions for brighter satellites

Satellite Brightness Start Highest point End
(mag) Time Altitude Azimuth Time Altitude Azimuth Time Altitude Azimuth
Resurs 1-4 Rocket 4.0 00:19:39 10° NNE 00:22:10 27° NE 00:22:10 27° NE
CZ-2D R/B 3.7 00:34:46 10° NNE 00:37:41 32° NE 00:37:41 32° NE
Lacrosse 4 Rocket 4.1 00:54:25 18° NE 00:54:25 18° NE 00:56:37 10° ENE
ADEOS II 3.3 00:58:01 10° NNE 01:01:33 39° NE 01:01:33 39° NE
MSX 4.1 01:22:26 10° NNE 01:27:45 64° ENE 01:27:45 64° ENE
Cosmos 2322 Rocket 4.3 01:23:57 10° NNW 01:28:31 24° NNE 01:33:04 10° E
BREEZE-M R/B 4.4 01:30:39 56° SE 01:30:39 56° SE 01:39:17 10° E
ATLAS CENTAUR R/B 3.2 01:32:08 32° E 01:32:08 32° E 01:35:27 10° NE
Cosmos 1980 Rocket 3.4 01:29:47 10° NNW 01:41:01 10° SE 01:32:41 31° NNW
SL-16 R/B 4.4 01:39:24 13° NW 01:41:11 15° NNW 01:44:15 10° NNE
ATLAS 5 CENTAUR R/B 3.5 01:41:58 23° N 01:42:22 24° N 01:46:28 10° NE
Meteor 2-6 Rocket 4.4 01:44:57 66° E 01:44:57 66° E 01:50:28 10° NNE
SL-16 R/B 4.0 01:51:00 23° NW 01:51:00 23° NW 01:53:31 10° NNW
Cosmos 2056 Rocket 3.8 01:55:00 58° ESE 01:55:00 58° ESE 01:59:59 10° NNE
Cosmos 1420 Rocket 4.4 01:58:10 53° SE 01:58:32 55° ESE 02:03:36 10° NNE
Cosmos 2278 4.1 01:53:46 10° NNW 01:59:25 62° NE 02:05:01 10° SE
SL-16 R/B 3.5 01:54:24 10° NNW 01:59:43 39° NE 02:05:01 10° ESE
IRS-1D 3.6 01:56:53 10° NNE 02:02:12 72° ESE 02:02:36 68° SE
ALOS 3.3 01:59:32 10° NNE 02:04:00 42° E 02:05:10 35° SE
Cosmos 1346 Rocket 3.9 02:04:55 42° ENE 02:04:55 42° ENE 02:07:56 10° NNE
Resurs 1-4 Rocket 3.3 01:59:43 10° N 02:03:14 31° NNW 02:03:14 31° NNW
Cosmos 1470 Rocket 4.1 02:02:02 10° N 02:06:20 55° ENE 02:06:29 55° E
IDEFIX/ARIANE 42P 3.1 02:01:22 10° N 02:05:39 48° NNW 02:05:39 48° NNW
FENGYUN 3A 4.1 02:02:55 10° NNE 02:08:14 57° E 02:10:02 39° SSE
USA 305 3.8 02:09:29 44° E 02:09:29 44° E 02:12:23 10° ENE
Cosmos 1536 4.5 02:04:37 10° N 02:06:39 28° N 02:06:39 28° N
Cosmos 1833 Rocket 2.5 02:13:00 77° WSW 02:13:23 83° WNW 02:19:05 10° NNE
Cosmos 1741 Rocket 4.4 02:09:24 10° NNW 02:14:38 62° ENE 02:19:47 10° SE
CZ-2D R/B 3.3 02:15:16 10° N 02:18:59 28° NW 02:18:59 28° NW
CENTAUR R/B 3.5 02:27:14 23° S 02:30:32 42° ESE 02:37:10 10° NE
Meteor 1-27 Rocket 4.0 02:28:05 25° S 02:31:37 70° E 02:37:31 10° NNE
ARIANE 5 R/B 3.8 02:27:14 10° NNE 02:31:54 37° E 02:36:30 10° SSE
Lacrosse 4 Rocket 1.7 02:30:46 31° NNW 02:32:45 70° NE 02:37:10 10° SE
BREEZE-M DEB (TANK) 3.6 02:34:33 25° ESE 02:34:33 25° ESE 02:36:37 10° E
Cosmos 2344 4.5 02:26:21 10° NW 02:34:13 56° NNE 02:44:38 10° ESE
CZ-2C R/B 3.0 02:29:44 10° SSE 02:34:57 65° ENE 02:40:19 10° N
Intercosmos 24 Rocket 4.5 02:30:27 10° NNW 02:35:45 81° W 02:36:09 72° SSW
CZ-2C R/B 3.4 02:33:53 10° NNE 02:37:41 16° SE 02:38:42 10° SSE
Cosmos 2100 Rocket 4.2 02:30:37 13° S 02:36:09 67° E 02:42:19 10° NNE
Cosmos 2333 Rocket 4.1 02:31:15 10° NNW 02:36:13 29° NE 02:41:07 10° E
Helios 1B rocket 3.4 02:32:53 10° NNE 02:36:49 44° E 02:39:02 23° SSE
Cosmos 1153 Rocket 4.4 02:34:05 34° SSW 02:36:57 84° W 02:43:17 10° N
Meteor 1-10 Rocket 4.1 02:39:08 48° SW 02:40:39 71° WNW 02:46:22 10° N
Cosmos 2082 Rocket 2.3 02:38:50 36° SSW 02:41:10 73° ESE 02:46:48 10° NE
ADEOS II 3.0 02:38:06 10° N 02:42:28 30° NW 02:42:28 30° NW
Cosmos 2360 Rocket 3.5 02:38:33 10° NNW 02:43:51 40° NE 02:49:07 10° ESE
Cosmos 1452 Rocket 4.1 02:43:49 20° S 02:47:23 55° ESE 02:52:34 10° NNE
Cosmos 968 Rocket 4.5 02:42:57 10° NNW 02:47:59 47° NE 02:52:55 10° SE
CZ-2C R/B 2.4 02:43:27 10° NNE 02:48:28 79° ESE 02:51:08 27° S
Okean 1 4.1 02:47:37 18° SSE 02:50:22 52° E 02:54:18 10° NNE
Cosmos 1624 Rocket 4.1 02:50:31 47° WSW 02:51:42 57° WNW 02:56:59 10° NNE
USA 307 2.6 02:51:30 70° W 02:51:58 88° N 02:56:06 10° ENE
Cosmos 2346 Rocket 4.3 02:48:22 10° NNW 02:54:25 71° W 03:00:29 10° S
Cosmos 1441 Rocket 3.1 02:55:51 61° WNW 02:55:51 61° WNW 02:59:27 10° N
ERBS 3.1 02:57:08 36° NNE 02:57:08 36° NNE 02:59:31 10° ENE
USA 306 2.7 03:00:25 56° W 03:01:14 82° N 03:05:21 10° E
Cosmos 1459 Rocket 4.0 02:56:10 10° S 03:02:33 90° WNW 03:08:58 10° N
BREEZE-M DEB (TANK) 3.8 03:04:00 21° S 03:04:00 21° S 03:07:14 10° SE
COSMOS 2406 3.2 03:01:52 35° SW 03:04:16 68° NW 03:09:58 10° NNE
NOSS 3-2 (A) 3.7 03:01:34 23° SSW 03:05:07 63° SE 03:11:36 10° NE
EO 1 Del DPAF 3.9 03:02:47 10° N 03:05:06 33° NNW 03:05:06 33° NNW
Cosmos 1151 Rocket 4.0 03:06:28 30° WNW 03:06:28 30° WNW 03:09:52 10° N
Meteor 2-13 Rocket 4.4 03:00:58 10° NNW 03:07:00 60° W 03:13:02 10° S
Cosmos 1371 Rocket 4.5 03:06:18 35° W 03:07:40 43° NW 03:12:39 10° NNE
ATLAS CENTAUR R/B 2.0 03:08:06 38° W 03:09:39 55° NW 03:14:23 10° NE
Cosmos 1933 Rocket 3.5 03:06:38 10° NNW 03:11:02 61° W 03:15:21 10° S
IKONOS-2 4.5 03:07:42 10° SSE 03:11:56 87° ENE 03:16:13 10° NNW
CZ-2D R/B 3.9 03:08:36 10° NNE 03:12:33 58° ESE 03:16:31 10° S
Cosmos 1328 Rocket 4.0 03:12:11 38° W 03:12:53 41° WNW 03:17:06 10° N
OPS 6432 4.2 03:13:22 57° SSW 03:13:22 57° SSW 03:16:25 10° SSE
Cosmos 2322 Rocket 2.3 03:07:47 10° NNW 03:13:32 77° ENE 03:19:11 10° SE
IRS-1C 4.1 03:08:10 10° NNE 03:13:34 87° ESE 03:18:55 10° SSW
DELTA 2 DEB (DPAF) 4.0 03:10:26 10° S 03:14:50 74° WSW 03:19:15 10° NNW
Cosmos 2237 4.3 03:09:24 10° NNW 03:15:09 83° ENE 03:20:51 10° SSE
Meteor 1-11 Rocket 4.4 03:10:33 10° NNW 03:15:50 34° W 03:18:13 25° SW
Cosmos 1980 Rocket 4.1 03:23:06 11° SSW 03:23:06 11° SSW 03:23:25 10° SSW
Cosmos 1975 2.9 03:15:08 10° N 03:19:09 77° ENE 03:23:07 10° SSE
SL-08 R/B 3.2 03:16:31 10° SSE 03:21:13 77° WSW 03:26:04 10° NNW
COSMOS 2455 3.1 03:15:24 10° NW 03:21:27 73° NE 03:27:28 10° SE
USA 238 DEB 4.5 03:15:48 10° SSW 03:21:55 48° ESE 03:28:27 10° NE
USA 238 4.5 03:15:55 10° SSW 03:22:01 47° ESE 03:28:32 10° NE
Tsikada Rocket 4.0 03:17:57 10° N 03:24:18 89° ENE 03:30:33 10° S
PAYLOAD A 4.0 03:19:56 10° N 03:24:40 57° WNW 03:28:15 18° SW
Cosmos 1850 Rocket 4.4 03:19:54 10° NW 03:24:54 42° WSW 03:29:53 10° S
Cosmos 1242 Rocket 2.9 03:21:30 10° N 03:24:56 60° ENE 03:28:17 10° SSE
BREEZE M DEB (TANK) 4.3 03:16:14 17° SW 03:24:57 47° SSE 03:28:53 10° E
USA 308 2.8 03:25:30 32° W 03:27:20 79° N 03:31:28 10° E
ATLAS 5 CENTAUR R/B 3.4 03:23:43 10° NW 03:28:04 35° NNE 03:33:18 10° E
Cosmos 44 Rocket 3.3 03:26:24 28° WSW 03:28:42 59° NW 03:33:23 10° NE
Meteor 2-9 Rocket 4.3 03:23:14 10° NNW 03:28:47 52° W 03:34:09 10° S
Cosmos 1802 Rocket 4.0 03:25:39 10° SSW 03:32:00 73° WNW 03:38:18 10° N
Cosmos 1725 Rocket 4.0 03:25:49 10° S 03:32:10 88° WNW 03:38:32 10° N
Cosmos 1378 3.0 03:30:12 16° SSW 03:32:58 66° WNW 03:36:37 10° N
SKYMED 2 4.5 03:32:34 10° SE 03:36:47 52° ENE 03:41:01 10° N
Cosmos 2056 Rocket 4.4 03:35:20 22° W 03:37:25 29° NW 03:41:55 10° NNE
Meteor 1-19 Rocket 4.1 03:34:09 10° SSW 03:39:32 66° WNW 03:44:59 10° N
Cosmos 2173 Rocket 4.1 03:33:48 10° SSW 03:39:43 52° WNW 03:45:41 10° N
Cosmos 1346 Rocket 4.2 03:40:21 20° WNW 03:40:38 20° WNW 03:43:37 10° NNW
Cosmos 1515 Rocket 4.0 03:37:57 19° SW 03:40:49 41° WNW 03:45:05 10° N
ALOS 3.1 03:37:08 10° N 03:41:17 32° WNW 03:43:37 20° WSW
GP-B 3.1 03:37:03 10° S 03:41:25 62° W 03:45:50 10° N
Cosmos 2278 4.4 03:38:24 10° NW 03:43:13 29° WSW 03:48:01 10° SSW
Cosmos 1733 3.8 03:40:16 10° N 03:43:59 59° ENE 03:47:41 10° SSE
SL-16 R/B 2.3 03:38:32 10° NW 03:44:03 53° WSW 03:49:32 10° S
IDEFIX/ARIANE 42P 4.5 03:42:42 10° NNW 03:45:01 13° NW 03:46:26 12° WNW
Cosmos 1461 2.8 03:42:22 19° SW 03:45:11 77° NW 03:49:28 10° NE
USA 305 2.8 03:44:58 21° W 03:47:38 78° N 03:51:46 10° E
Meteor 2-19 Rocket 4.4 03:42:27 10° NNW 03:48:39 79° W 03:54:48 10° S
USA 290 2.4 03:47:00 10° NNW 03:50:14 74° ENE 03:53:26 10° SSE
METEOR-M 4.4 03:45:35 10° N 03:50:44 49° WNW 03:55:52 10° SW
IRS-P3 4.3 03:48:14 10° N 03:53:27 54° WNW 03:58:37 10° SW
SJ 16-02 3.2 03:51:54 10° N 03:55:54 33° NE 03:59:53 10° ESE
Cosmos 1833 Rocket 4.0 03:54:43 15° W 03:58:10 25° NW 04:02:48 10° NNE
Cosmos 192 4.3 03:56:26 10° SSW 04:01:24 75° WNW 04:06:23 10° NNE
Spot 4 Rocket 4.0 03:58:30 10° NNE 04:03:40 82° WNW 04:08:48 10° SSW
Cosmos 2228 Rocket 3.0 03:59:43 10° SSW 04:04:10 72° WNW 04:08:37 10° N
YAOGAN 6 2.9 04:00:42 10° N 04:04:11 45° WNW 04:07:38 10° SW
Cosmos 2219 Rocket 2.7 03:59:16 10° NNW 04:04:53 63° NE 04:10:28 10° SE
Cosmos 1486 Rocket 4.3 04:00:00 10° NNW 04:05:22 76° ENE 04:10:39 10° SSE
Cosmos 1331 Rocket 4.0 04:01:42 10° SW 04:06:48 62° WNW 04:11:58 10° NNE
Cosmos 1726 2.5 04:05:14 10° N 04:08:51 65° ENE 04:12:27 10° SSE
Cosmos 1484 Rocket 3.4 04:05:34 10° N 04:09:17 38° WNW 04:12:58 10° SW
Lacrosse 4 Rocket 2.8 04:07:43 10° WNW 04:10:58 21° WSW 04:14:14 10° SSW
Cosmos 1302 Rocket 4.2 04:05:42 10° SSW 04:10:59 81° ESE 04:16:19 10° NNE
SKYMED 3 4.5 04:06:50 10° SSE 04:11:00 89° E 04:15:10 10° NNW
ARIANE 5 R/B 3.0 04:06:22 10° N 04:11:02 40° WNW 04:15:41 10° SW
Helios 1B rocket 3.5 04:08:24 10° N 04:11:45 25° WNW 04:15:05 10° WSW
Lacrosse 5 rocket 3.9 04:10:43 10° S 04:14:14 22° SE 04:17:43 10° E
Meteor 1-29 3.1 04:11:46 10° N 04:14:57 46° WNW 04:18:07 10° SW
DMSP B5D2-2 4.1 04:10:26 10° S 04:15:42 73° WSW 04:21:01 10° NNW
CZ-2C R/B 3.6 04:11:28 10° SW 04:15:44 24° W 04:20:05 10° NW
CZ-2C R/B 3.3 04:11:22 10° N 04:17:06 68° WNW 04:22:34 10° SSW
CENTAUR R/B 2.8 04:14:45 10° WSW 04:20:57 65° NW 04:28:33 10° NE
Cosmos 2333 Rocket 2.2 04:15:24 10° NNW 04:21:09 81° WSW 04:26:48 10° SSE
CZ-4C R/B 4.1 04:18:31 10° SSW 04:22:27 35° W 04:26:30 10° NNW
Cosmos 1110 Rocket 4.4 04:18:16 10° SW 04:23:13 45° NW 04:28:14 10° NNE
Cosmos 2016 Rocket 4.5 04:17:42 10° SW 04:23:40 41° WNW 04:29:40 10° N
COSMO-SKYMED 1 2.6 04:20:32 10° S 04:24:49 59° WSW 04:29:08 10° NNW
Cosmos 1707 Rocket 3.5 04:21:03 10° SSW 04:25:23 72° WNW 04:29:45 10° N
Cosmos 2082 Rocket 3.1 04:20:51 10° WSW 04:25:47 31° NW 04:30:45 10° NNE
CZ-2C R/B 3.8 04:22:29 10° N 04:26:07 21° NW 04:29:39 10° WSW
Envisat 3.3 04:22:41 10° N 04:27:32 45° WNW 04:32:20 10° SW
Cosmos 2360 Rocket 2.4 04:22:35 10° NW 04:28:02 51° WSW 04:33:26 10° S
Cosmos 968 Rocket 4.1 04:25:02 10° NW 04:29:38 33° WSW 04:34:12 10° SSW
Cosmos 1452 Rocket 4.4 04:25:05 10° WSW 04:29:48 32° NW 04:34:34 10° NNE
Cosmos 2237 Rocket 3.8 04:24:54 10° NNW 04:30:02 34° NE 04:35:09 10° ESE
USA 276 3.9 04:27:33 10° SW 04:30:07 25° SSE 04:32:41 10° E
Meteor 1-12 Rocket 4.5 04:24:14 10° NNW 04:30:13 83° ENE 04:36:04 10° SSE
Meteor 2-10 4.0 04:25:41 10° NNW 04:30:47 58° W 04:35:44 10° S
USA 307 2.9 04:27:17 10° W 04:31:26 84° NNE 04:35:34 10° E
ERBS 2.7 04:29:00 10° WNW 04:31:47 45° NNE 04:34:35 10° E
H-2A R/B 3.8 04:29:29 10° NNE 04:34:39 40° E 04:39:44 10° SSE
